Location: Bli��� Lhota
(48.7570°N, 14.0120°E)
Time: 04:48:18
(UTC+00:00)

ATLAS 3B R/B - Pass Details

Date: 18 September 2020
Orbit: 1016 x 1179 km, 63.8° (Epoch: 28 October)

Event Time Altitude Azimuth Distance (km) Brightness Sun altitude
Rises 17:39:58 0° 305° (NW) 3,783 6.9 -5.8°
Reaches altitude 10° 17:43:09 10° 319° (NW) 2,847 5.8 -6.3°
Maximum altitude 17:48:27 24° 11° (NNE) 2,043 4.2 -7.2°
Drops below altitude 10° 17:53:53 10° 64° (ENE) 2,926 4.5 -8.1°
Enters shadow 17:55:34 - 72° (ENE) 3,407 4.8 -8.3°
